METEOR 2-7

导读

METEOR 2-7是苏联解体后独立国家联合体(CIS)继承的第二代“流星”极轨气象卫星系列成员,于1981年5月14日08:00发射升空。该系列卫星运行于约900公里高度的近极轨道,搭载可见光红外相机、多通道扫描辐射计及空间环境探测器,可获取全球云图、大气温湿分布与近地空间辐射数据,为气象预报与气候研究提供长期观测支撑,是苏联气象卫星体系中承前启后的业务卫星,推动了极轨气象观测网络的完善。

基本信息
目录编号:
12456
目录名称:
METEOR 2-7
国际标识:
1981-043A
轨道中心:
EARTH
卫星名称:
METEOR 2-7
卫星全名:
--
卫星状态:
在轨 (已飞行16510 天)
发射日期:
1981-05-14 UTC
国别 :
俄罗斯(独联体) (CIS)
星等 :
--
轨道信息
数据来源 国际轨道数据
星历时间: 2026-07-27T10:50:06+0800
18小时前
查看轨道信息
半长轴: 7233.878km
偏心率: 0.00477
轨道倾角: 81.264°
近地点辐角 18.844°
升交点赤经 60.244°
平近点角 341.448°
近地点: 821.235km
远地点: 890.247km
周期: 102.051分钟
每日圈数: 14.110619
详细信息
使用方式:
暂无
2D轨道图
3D轨道图
轨道高度分析图
轨道倾角分析图
轨道综合分析图
查看轨道综合分析图